This is the latest recevied weather packets stored in our database for station/object KD4KKF. If no packets are shown the sender has not sent any weather packets the latest 10 day(s).
| Time | Temp. | Humidity | Pressure | Rain* | Wind** | Luminosity | Snow |
|---|---|---|---|---|---|---|---|
| 1777947714 | 15° C | 89% | 1011.8 hPa | 0 mm | - | 0 W/m² | - |
| 1777947411 | 15° C | 88% | 1012 hPa | 0 mm | - | 0 W/m² | - |
| 1777947108 | 15.56° C | 87% | 1012 hPa | 0 mm | - | 0 W/m² | - |
| 1777946803 | 15.56° C | 87% | 1012 hPa | 0 mm | - | 0 W/m² | - |
| 1777946500 | 15.56° C | 87% | 1011.8 hPa | 0 mm | - | 0 W/m² | - |
| 1777946197 | 15.56° C | 86% | 1011.7 hPa | 0 mm | - | 0 W/m² | - |
| 1777945893 | 16.11° C | 85% | 1011.6 hPa | 0 mm | - | 0 W/m² | - |
| 1777945590 | 15.56° C | 84% | 1012 hPa | 0 mm | - | 0 W/m² | - |
| 1777945287 | 16.11° C | 85% | 1011.7 hPa | 0 mm | - | 0 W/m² | - |
| 1777944985 | 16.11° C | 83% | 1011.8 hPa | 0 mm | - | 0 W/m² | - |
| 1777944682 | 16.11° C | 82% | 1011.7 hPa | 0 mm | - | 0 W/m² | - |
| 1777944380 | 16.67° C | 82% | 1011.4 hPa | 0 mm | - | 0 W/m² | - |
| 1777944077 | 16.67° C | 81% | 1011.4 hPa | 0 mm | - | 0 W/m² | - |
| 1777943772 | 16.67° C | 80% | 1011.5 hPa | 0 mm | - | 0 W/m² | - |
| 1777943470 | 17.22° C | 79% | 1011.3 hPa | 0 mm | - | 0 W/m² | - |
| 1777943164 | 17.22° C | 78% | 1011.5 hPa | 0 mm | - | 0 W/m² | - |
| 1777942862 | 17.78° C | 79% | 1011.3 hPa | 0 mm | - | 0 W/m² | - |
| 1777942558 | 17.78° C | 76% | 1011.6 hPa | 0 mm | - | 0 W/m² | - |
| 1777942255 | 17.78° C | 76% | 1011.1 hPa | 0 mm | - | 0 W/m² | - |
| 1777941952 | 18.33° C | 75% | 1011.2 hPa | 0 mm | - | 0 W/m² | - |
| 1777941649 | 18.33° C | 74% | 1011.3 hPa | 0 mm | - | 0 W/m² | - |
| 1777941347 | 18.89° C | 73% | 1011.3 hPa | 0 mm | - | 0 W/m² | - |
| 1777941044 | 19.44° C | 72% | 1011.1 hPa | 0 mm | - | 4 W/m² | - |
| 1777940743 | 19.44° C | 71% | 1011 hPa | 0 mm | - | 7 W/m² | - |
| 1777940443 | 20° C | 68% | 1011 hPa | 0 mm | - | 9 W/m² | - |
* Rain latest hour (hover to see other rain measurements)
** Current wind speed in m/s (hover to see current wind gust speed)